Content
SEND FEEDBACK

Daily
Averages
Monthly
Summary
United States of America

MAURICEVILLE, TEXAS


Home > North America > United States > Texas
Elevation: 20 feet     Latitude: 30 14N     Longitude: 093 44W

WEATHER
 
SELECT A DAY
Number of Records: 108,109;   Date Range: 8/25/05 - 7/27/14
 
SHARE

PRINT THIS DATA

[ ← Previous Day ]
WEATHER ALMANAC - MAY 9, 2013
[ Next Day → ]
[ °C ]   °F
Weather ElementAverageHighLow
Temperature71 °F74.1 °F (9:55 am)69.1 °F (1:15 am)
Dewpoint68.1 °F70.7 °F (1:15 pm)66.2 °F (1:15 am)
Humidity90.5 %93 % (11:35 am)85 % (9:55 am)
Barometer30.03 in30.08 in (11:35 am)30.01 in (2:15 am)
Wind Speed0.5 mph6.9 mph (9:55 am)
Weather ElementAverage
Visibility8.7 mi
Wind DirectionNNE (12.7 °)

Weather ElementTotal
Precipitation0.02 in
Cooling Degree Days6.6 (Base 65)
Growing Degree Days21.6 (Base 50)
Averaged from 22 records on May 9, 2013
WEATHER CONDITIONS BREAKOUT
WIND DIRECTION BREAKOUT
WEATHER BY HOUR - MAY 9, 2013
[ °C ]   °F
Local TimeTemperatureDewpointHumidityBarometerVisibilityWind DirectionWind SpeedGust SpeedPrecipitationEventsConditions
1:15 AM69.1 °F66.2 °F91 %30.02 in10.0 miCalmOvercast
1:35 AM69.4 °F66.4 °F90 %30.02 in10.0 miCalmOvercast
1:55 AM69.8 °F66.6 °F89 %30.02 in10.0 miCalmOvercast
2:15 AM69.6 °F66.4 °F89 %30.01 in10.0 miCalmOvercast
2:55 AM69.1 °F66.4 °F91 %30.01 in10.0 miCalmMostly Cloudy
3:35 AM69.8 °F66.7 °F90 %30.01 in10.0 miCalmOvercast
3:55 AM70.0 °F66.9 °F90 %30.01 in10.0 miCalmOvercast
4:35 AM70.2 °F67.1 °F90 %30.01 in10.0 miCalmOvercast
4:55 AM70.0 °F67.1 °F91 %30.01 in10.0 miCalmOvercast
5:15 AM70.0 °F67.3 °F91 %30.01 in10.0 miCalmOvercast
6:15 AM70.3 °F68.0 °F92 %30.01 in10.0 miCalmOvercast
6:35 AM70.7 °F68.2 °F92 %30.02 in10.0 miCalmOvercast
7:55 AM71.6 °F68.5 °F90 %30.04 in10.0 miCalmOvercast
8:15 AM71.6 °F68.5 °F90 %30.04 in10.0 miCalmOvercast
8:35 AM72.0 °F68.9 °F90 %30.06 in10.0 miCalmOvercast
9:55 AM74.1 °F69.3 °F85 %30.05 inSE (140°)6.9 mph
10:35 AM73.6 °F68.9 °F85 %30.06 in10.0 miCalmOvercast
11:35 AM71.6 °F69.4 °F93 %30.08 in2.0 miCalmRainLight Rain
12:15 PM72.3 °F70.3 °F93 %30.07 in3.0 miCalmOvercast
12:35 PM72.0 °F70.0 °F93 %30.07 in3.0 miCalm0.01 inOvercast
12:55 PM72.5 °F70.2 °F92 %30.06 in7.0 miSE (140°)4.6 mph0.01 inOvercast
1:15 PM72.9 °F70.7 °F93 %30.06 in7.0 miCalmOvercast
Hourly data recorded from KORG, located miles away from Mauriceville, Texas







STORIES FROM OUR PARTNERS